Zurück zum Katalog

ATLAS 5 CENTAUR DEB

AktivHEO
NORAD 43958·DEBRIS·🇺🇸 United States

Gestartet Sep 17, 2014 von Cape Canaveral Space Force Station

Loading…

Nächste Überflüge (nächste 24 Stunden)

TLE

AktuellSource: Space-Track

Epoche: Sep 10, 2026, 07:21 UTC

1 43958U 14055M   26253.30660469 -.00000107  00000-0  00000+0 0  9994
2 43958  20.5054 127.3155 4661272 195.2919 143.6219  1.89320501 55516

Verfolge ATLAS 5 CENTAUR DEB in Echtzeit mit AllMySat

Download on the App Store